Date String (YYYY-MM-DD hh:mm:ss) UTC,Instrument flags,Ambient pressure (hPa),Sample flow (lpm),Bypass flow (lpm),Sample temperature (°C),Ambient temperature (°C),ASC tube jacket temperature (°C),LED temperature (°C),Box temperature (°C),Sample RH (%),Span deviation,Mass concentration (μg/m³),Mass concentration (μg/m³),Mass concentration (μg/m³)
DateTimeUTC,F1_M11,P_M11,Q1_M11,Q2_M11,T1_M11,T2_M11,T3_M11,T4_M11,T5_M11,U1_M11,ZSPAN_M11,X2_M11,X0_M11,X1_M11
2023-05-22 04:00:00,,0832.8,5.00,0.00,29.5,28.0,00.0,37.8,31.2,18.3,0004.0,0014.91,0019.57,0013.96
2023-05-22 04:01:00,,0832.8,5.01,0.00,29.5,28.0,00.0,37.8,31.2,19.1,0003.9,0014.91,0019.64,0013.96
2023-05-22 04:02:00,,0832.8,5.01,0.00,29.5,28.0,00.0,37.9,31.2,19.2,0004.0,0014.93,0020.33,0013.97
2023-05-22 04:03:00,,0832.8,4.98,0.00,29.6,28.1,00.0,37.9,31.2,18.6,0004.0,0014.91,0020.54,0013.98
2023-05-22 04:04:00,,0832.8,5.01,0.00,29.6,28.1,00.0,37.9,31.2,18.2,0003.9,0014.93,0020.72,0013.98
2023-05-22 04:05:00,,0832.8,5.01,0.00,29.6,28.1,00.0,37.9,31.2,18.4,0003.8,0014.91,0021.04,0013.98
2023-05-22 04:06:00,,0832.8,5.00,0.00,29.6,28.1,00.0,37.9,31.2,18.7,0003.6,0014.91,0021.79,0014.00
2023-05-22 04:07:00,,0832.8,5.00,0.00,29.6,28.1,00.0,37.9,31.3,18.4,0003.5,0014.92,0022.06,0013.99
2023-05-22 04:08:00,,0832.8,5.00,0.00,29.6,28.2,00.0,37.9,31.3,18.4,0003.4,0014.95,0022.08,0014.02
2023-05-22 04:09:00,,0832.8,5.00,0.00,29.7,28.2,00.0,37.9,31.3,18.3,0003.4,0014.99,0022.20,0014.02
2023-05-22 04:10:00,,0832.8,5.01,0.00,29.7,28.2,00.0,38.0,31.3,18.4,0003.4,0015.04,0022.41,0014.01
2023-05-22 04:11:00,,0832.8,5.00,0.00,29.7,28.2,00.0,38.0,31.3,18.5,0003.5,0015.04,0022.42,0014.00
2023-05-22 04:12:00,,0832.8,5.00,0.00,29.7,28.2,00.0,38.0,31.3,18.3,0003.6,0015.03,0023.08,0013.98
2023-05-22 04:13:00,,0832.7,4.99,0.00,29.7,28.2,00.0,38.0,31.3,18.2,0003.7,0015.12,0022.75,0014.02
2023-05-22 04:14:00,,0832.8,5.01,0.00,29.7,28.2,00.0,38.0,31.3,18.1,0003.8,0015.16,0022.36,0014.04
2023-05-22 04:15:00,,0833.0,5.00,0.00,29.7,28.2,00.0,38.0,31.3,18.1,0003.9,0015.15,0022.51,0014.05
2023-05-22 04:16:00,,0832.8,5.00,0.00,29.7,28.2,00.0,38.0,31.4,18.2,0003.8,0015.17,0022.34,0014.06
2023-05-22 04:17:00,,0832.7,5.01,0.00,29.8,28.3,00.0,38.0,31.4,18.0,0003.7,0015.20,0021.64,0014.08
2023-05-22 04:18:00,,0832.8,5.01,0.00,29.8,28.3,00.0,38.1,31.4,18.0,0003.8,0015.24,0021.90,0014.11
2023-05-22 04:19:00,,0832.8,5.00,0.00,29.8,28.3,00.0,38.1,31.4,18.0,0003.8,0015.31,0022.02,0014.14
2023-05-22 04:20:00,,0832.8,5.00,0.00,29.8,28.3,00.0,38.1,31.4,18.0,0003.9,0015.32,0022.01,0014.14
2023-05-22 04:21:00,,0832.8,4.99,0.00,29.8,28.3,00.0,38.1,31.4,18.0,0003.9,0015.29,0022.18,0014.16
2023-05-22 04:22:00,,0832.8,5.00,0.00,29.8,28.3,00.0,38.1,31.4,18.2,0003.9,0015.34,0022.35,0014.19
2023-05-22 04:23:00,,0832.8,5.01,0.00,29.8,28.3,00.0,38.1,31.4,18.1,0003.9,0015.37,0021.84,0014.24
2023-05-22 04:24:00,,0832.8,5.01,0.00,29.8,28.3,00.0,38.1,31.4,18.2,0003.8,0015.27,0021.52,0014.22
2023-05-22 04:25:00,,0832.8,4.99,0.00,29.8,28.3,00.0,38.1,31.4,18.0,0003.7,0015.28,0021.91,0014.24
2023-05-22 04:26:00,,0832.8,5.00,0.00,29.8,28.3,00.0,38.1,31.4,18.1,0003.7,0015.27,0022.21,0014.23
2023-05-22 04:27:00,,0832.8,5.00,0.00,29.8,28.3,00.0,38.1,31.5,18.1,0003.5,0015.28,0022.73,0014.25
2023-05-22 04:28:00,,0832.8,5.01,0.00,29.9,28.4,00.0,38.2,31.5,18.0,0003.5,0015.33,0023.05,0014.26
2023-05-22 04:29:00,,0832.7,4.98,0.00,29.9,28.3,00.0,38.2,31.5,18.0,0003.5,0015.34,0022.85,0014.29
2023-05-22 04:30:00,,0832.7,5.00,0.00,29.9,28.4,00.0,38.2,31.5,17.9,0003.5,0015.31,0022.87,0014.27
2023-05-22 04:31:00,,0832.7,5.01,0.00,29.9,28.4,00.0,38.2,31.5,17.9,0003.1,0015.31,0022.94,0014.31
2023-05-22 04:32:00,,0832.8,5.01,0.00,29.9,28.4,00.0,38.2,31.5,18.0,0002.9,0015.34,0022.77,0014.34
2023-05-22 04:33:00,,0832.7,5.00,0.00,29.9,28.4,00.0,38.2,31.5,17.9,0002.7,0015.33,0022.57,0014.36
2023-05-22 04:34:00,,0832.7,4.98,0.00,29.9,28.4,00.0,38.2,31.5,17.9,0002.4,0015.33,0022.59,0014.37
2023-05-22 04:35:00,,0832.7,5.00,0.00,29.9,28.4,00.0,38.2,31.5,17.8,0002.3,0015.35,0023.06,0014.39
2023-05-22 04:36:00,,0832.7,5.02,0.00,29.9,28.4,00.0,38.2,31.5,17.8,0002.1,0015.34,0022.82,0014.40
2023-05-22 04:37:00,,0832.7,5.00,0.00,29.9,28.4,00.0,38.2,31.5,17.8,0002.0,0015.32,0022.48,0014.40
2023-05-22 04:38:00,,0832.7,4.99,0.00,29.9,28.3,00.0,38.2,31.5,17.8,0002.0,0015.34,0021.91,0014.42
2023-05-22 04:39:00,,0832.6,5.01,0.00,29.9,28.3,00.0,38.2,31.5,17.9,0002.1,0015.35,0021.53,0014.41
2023-05-22 04:40:00,,0832.7,5.01,0.00,29.9,28.4,00.0,38.3,31.5,17.8,0002.1,0015.28,0021.34,0014.40
2023-05-22 04:41:00,,0832.6,4.99,0.00,29.9,28.3,00.0,38.3,31.5,17.8,0002.0,0015.26,0020.91,0014.38
2023-05-22 04:42:00,,0832.6,4.99,0.00,29.9,28.4,00.0,38.3,31.5,17.8,0002.0,0015.28,0021.07,0014.37
2023-05-22 04:43:00,,0832.7,5.01,0.00,29.9,28.3,00.0,38.3,31.5,17.8,0002.3,0015.23,0020.96,0014.35
2023-05-22 04:44:00,,0832.7,5.00,0.00,29.9,28.3,00.0,38.3,31.5,17.8,0002.5,0015.27,0021.26,0014.36
2023-05-22 04:45:00,,0832.7,4.98,0.00,29.9,28.3,00.0,38.3,31.5,17.8,0002.5,0015.28,0021.28,0014.37
2023-05-22 04:46:00,,0832.7,5.02,0.00,29.9,28.3,00.0,38.3,31.5,17.7,0002.7,0015.27,0020.81,0014.38
2023-05-22 04:47:00,,0832.6,5.00,0.00,29.9,28.3,00.0,38.3,31.5,17.8,0002.9,0015.29,0020.44,0014.40
2023-05-22 04:48:00,,0832.6,4.99,0.00,29.9,28.3,00.0,38.3,31.5,18.0,0002.9,0015.31,0020.51,0014.39
2023-05-22 04:49:00,,0832.7,4.99,0.00,30.0,28.3,00.0,38.3,31.5,17.8,0003.0,0015.30,0021.61,0014.39
2023-05-22 04:50:00,,0832.6,5.01,0.00,30.0,28.3,00.0,38.3,31.5,17.7,0003.0,0015.26,0021.83,0014.39
2023-05-22 04:51:00,,0832.6,5.00,0.00,30.0,28.3,00.0,38.3,31.5,17.6,0002.9,0015.36,0022.84,0014.43
2023-05-22 04:52:00,,0832.6,5.00,0.00,30.0,28.3,00.0,38.3,31.5,17.7,0003.1,0015.41,0023.04,0014.45
2023-05-22 04:53:00,,0832.7,4.98,0.00,30.0,28.3,00.0,38.3,31.5,17.7,0003.1,0015.38,0022.83,0014.47
2023-05-22 04:54:00,,0832.6,5.01,0.00,30.0,28.3,00.0,38.3,31.5,17.7,0003.1,0015.38,0023.52,0014.48
2023-05-22 04:55:00,,0832.6,5.01,0.00,30.0,28.3,00.0,38.3,31.5,17.7,0003.1,0015.36,0023.45,0014.46
2023-05-22 04:56:00,,0832.6,4.99,0.00,30.0,28.3,00.0,38.3,31.5,17.7,0003.3,0015.33,0023.33,0014.44
2023-05-22 04:57:00,,0832.6,5.01,0.00,30.0,28.3,00.0,38.3,31.5,17.6,0003.4,0015.34,0023.34,0014.45
2023-05-22 04:58:00,,0832.6,5.01,0.00,30.0,28.4,00.0,38.3,31.6,17.5,0003.4,0015.34,0023.40,0014.44
2023-05-22 04:59:00,,0832.6,4.99,0.00,30.0,28.4,00.0,38.3,31.5,17.5,0003.3,0015.36,0023.62,0014.45
